Information on these data can be found in provided Readme document
Contact Info: Zachary Fasnacht (zachary.fasnacht@ssaihq.com); Nickolay Krotkov (nickolay.a.krotkov@nasa.gov); Lok Lamsal (lok.lamsal@nasa.gov)

FillValue: -999.
ScaleFactor: 1e15
Units: molecules/cm^2

Date(yyyy-mm-dd),City,Country,LonCenter,LatCenter,BoundingCoordinates,Median,Q1,Q3,Mean,Baseline_Median,Baseline_Q1,Baseline_Q3,Baseline_Mean,NumGoodSamples,NumTotalSamples
2015-01-01,PhnomPenh,Cambodia,104.9282,11.5564,[104.4282 11.0564 105.4282 12.0564],1.071,0.423,1.937,1.24,1.043,0.391,1.747,1.178,184.0,485.0
2015-01-02,PhnomPenh,Cambodia,104.9282,11.5564,[104.4282 11.0564 105.4282 12.0564],1.094,0.406,1.957,1.239,1.091,0.422,1.883,1.252,179.0,517.0
2015-01-03,PhnomPenh,Cambodia,104.9282,11.5564,[104.4282 11.0564 105.4282 12.0564],1.314,0.56,2.048,1.386,1.251,0.552,2.043,1.427,163.0,496.0
2015-01-04,PhnomPenh,Cambodia,104.9282,11.5564,[104.4282 11.0564 105.4282 12.0564],1.349,0.56,2.048,1.408,1.33,0.567,2.169,1.463,186.0,517.0
2015-01-05,PhnomPenh,Cambodia,104.9282,11.5564,[104.4282 11.0564 105.4282 12.0564],1.507,0.563,2.251,1.47,1.451,0.585,2.414,1.572,169.0,510.0
2015-01-06,PhnomPenh,Cambodia,104.9282,11.5564,[104.4282 11.0564 105.4282 12.0564],1.377,0.543,2.048,1.411,1.532,0.68,2.519,1.65,197.0,503.0
2015-01-07,PhnomPenh,Cambodia,104.9282,11.5564,[104.4282 11.0564 105.4282 12.0564],1.548,0.631,2.351,1.593,1.632,0.766,2.69,1.763,177.0,521.0
2015-01-08,PhnomPenh,Cambodia,104.9282,11.5564,[104.4282 11.0564 105.4282 12.0564],1.536,0.631,2.251,1.543,1.702,0.829,2.728,1.795,197.0,491.0
2015-01-09,PhnomPenh,Cambodia,104.9282,11.5564,[104.4282 11.0564 105.4282 12.0564],1.377,0.597,2.141,1.383,1.688,0.856,2.709,1.787,175.0,519.0
2015-01-10,PhnomPenh,Cambodia,104.9282,11.5564,[104.4282 11.0564 105.4282 12.0564],1.422,0.61,2.15,1.416,1.745,0.856,2.837,1.859,160.0,470.0
2015-01-11,PhnomPenh,Cambodia,104.9282,11.5564,[104.4282 11.0564 105.4282 12.0564],1.349,0.61,2.141,1.38,1.712,0.873,2.78,1.846,163.0,494.0
2015-01-12,PhnomPenh,Cambodia,104.9282,11.5564,[104.4282 11.0564 105.4282 12.0564],1.422,0.62,2.334,1.443,1.751,0.987,2.823,1.891,151.0,480.0
2015-01-13,PhnomPenh,Cambodia,104.9282,11.5564,[104.4282 11.0564 105.4282 12.0564],1.422,0.61,2.251,1.401,1.751,0.961,2.742,1.855,181.0,487.0
2015-01-14,PhnomPenh,Cambodia,104.9282,11.5564,[104.4282 11.0564 105.4282 12.0564],1.422,0.61,2.251,1.401,1.81,0.963,2.731,1.873,181.0,500.0
2015-01-15,PhnomPenh,Cambodia,104.9282,11.5564,[104.4282 11.0564 105.4282 12.0564],1.548,0.642,2.334,1.504,1.762,0.903,2.737,1.822,201.0,474.0
2015-01-16,PhnomPenh,Cambodia,104.9282,11.5564,[104.4282 11.0564 105.4282 12.0564],1.588,0.642,2.346,1.472,1.754,0.891,2.728,1.82,188.0,503.0
2015-01-17,PhnomPenh,Cambodia,104.9282,11.5564,[104.4282 11.0564 105.4282 12.0564],1.621,0.711,2.357,1.579,1.728,0.904,2.693,1.817,199.0,470.0
2015-01-18,PhnomPenh,Cambodia,104.9282,11.5564,[104.4282 11.0564 105.4282 12.0564],1.548,0.669,2.251,1.51,1.701,0.921,2.645,1.804,181.0,501.0
2015-01-19,PhnomPenh,Cambodia,104.9282,11.5564,[104.4282 11.0564 105.4282 12.0564],1.698,0.841,2.413,1.668,1.716,0.943,2.676,1.839,168.0,479.0
2015-01-20,PhnomPenh,Cambodia,104.9282,11.5564,[104.4282 11.0564 105.4282 12.0564],1.762,0.842,2.423,1.702,1.67,0.855,2.584,1.766,193.0,499.0
2015-01-21,PhnomPenh,Cambodia,104.9282,11.5564,[104.4282 11.0564 105.4282 12.0564],1.884,0.954,2.687,1.857,1.655,0.866,2.595,1.756,175.0,491.0
2015-01-22,PhnomPenh,Cambodia,104.9282,11.5564,[104.4282 11.0564 105.4282 12.0564],1.904,1.181,2.719,1.958,1.68,0.906,2.554,1.773,201.0,482.0
2015-01-23,PhnomPenh,Cambodia,104.9282,11.5564,[104.4282 11.0564 105.4282 12.0564],2.117,1.331,2.782,2.082,1.732,0.967,2.595,1.832,181.0,500.0
2015-01-24,PhnomPenh,Cambodia,104.9282,11.5564,[104.4282 11.0564 105.4282 12.0564],2.021,1.248,2.794,2.034,1.661,0.945,2.643,1.816,201.0,471.0
2015-01-25,PhnomPenh,Cambodia,104.9282,11.5564,[104.4282 11.0564 105.4282 12.0564],2.021,1.248,2.794,2.034,1.607,0.9,2.576,1.762,201.0,522.0
2015-01-26,PhnomPenh,Cambodia,104.9282,11.5564,[104.4282 11.0564 105.4282 12.0564],1.679,0.802,2.563,1.722,1.574,0.806,2.519,1.704,204.0,498.0
2015-01-27,PhnomPenh,Cambodia,104.9282,11.5564,[104.4282 11.0564 105.4282 12.0564],1.537,0.761,2.563,1.682,1.497,0.733,2.487,1.656,205.0,520.0
2015-01-28,PhnomPenh,Cambodia,104.9282,11.5564,[104.4282 11.0564 105.4282 12.0564],1.679,0.802,2.714,1.749,1.519,0.695,2.484,1.641,193.0,507.0
2015-01-29,PhnomPenh,Cambodia,104.9282,11.5564,[104.4282 11.0564 105.4282 12.0564],1.507,0.798,2.587,1.703,1.376,0.684,2.344,1.588,222.0,511.0
2015-01-30,PhnomPenh,Cambodia,104.9282,11.5564,[104.4282 11.0564 105.4282 12.0564],1.422,0.775,2.587,1.647,1.36,0.709,2.331,1.589,202.0,523.0
2015-01-31,PhnomPenh,Cambodia,104.9282,11.5564,[104.4282 11.0564 105.4282 12.0564],1.24,0.663,2.394,1.555,1.205,0.605,2.118,1.475,222.0,497.0
2015-02-01,PhnomPenh,Cambodia,104.9282,11.5564,[104.4282 11.0564 105.4282 12.0564],1.088,0.623,2.248,1.475,1.154,0.576,2.031,1.42,211.0,525.0
2015-02-02,PhnomPenh,Cambodia,104.9282,11.5564,[104.4282 11.0564 105.4282 12.0564],1.187,0.651,2.196,1.448,1.15,0.599,1.952,1.348,222.0,491.0
2015-02-03,PhnomPenh,Cambodia,104.9282,11.5564,[104.4282 11.0564 105.4282 12.0564],1.088,0.584,1.916,1.356,1.097,0.561,1.849,1.3,203.0,522.0
2015-02-04,PhnomPenh,Cambodia,104.9282,11.5564,[104.4282 11.0564 105.4282 12.0564],1.105,0.588,1.904,1.335,1.15,0.601,1.852,1.319,189.0,498.0
2015-02-05,PhnomPenh,Cambodia,104.9282,11.5564,[104.4282 11.0564 105.4282 12.0564],1.048,0.584,1.734,1.27,1.098,0.599,1.788,1.292,210.0,517.0
2015-02-06,PhnomPenh,Cambodia,104.9282,11.5564,[104.4282 11.0564 105.4282 12.0564],0.967,0.473,1.574,1.115,1.079,0.598,1.763,1.229,194.0,510.0
2015-02-07,PhnomPenh,Cambodia,104.9282,11.5564,[104.4282 11.0564 105.4282 12.0564],1.01,0.473,1.575,1.11,1.06,0.555,1.603,1.148,219.0,500.0
2015-02-08,PhnomPenh,Cambodia,104.9282,11.5564,[104.4282 11.0564 105.4282 12.0564],0.998,0.453,1.522,1.045,1.066,0.581,1.584,1.125,208.0,518.0
2015-02-09,PhnomPenh,Cambodia,104.9282,11.5564,[104.4282 11.0564 105.4282 12.0564],0.967,0.508,1.483,1.059,1.066,0.608,1.6,1.135,228.0,488.0
2015-02-10,PhnomPenh,Cambodia,104.9282,11.5564,[104.4282 11.0564 105.4282 12.0564],1.146,0.682,1.62,1.178,1.08,0.594,1.592,1.119,208.0,516.0
2015-02-11,PhnomPenh,Cambodia,104.9282,11.5564,[104.4282 11.0564 105.4282 12.0564],1.146,0.709,1.638,1.19,1.058,0.558,1.566,1.093,193.0,469.0
2015-02-12,PhnomPenh,Cambodia,104.9282,11.5564,[104.4282 11.0564 105.4282 12.0564],1.124,0.584,1.569,1.118,1.056,0.549,1.557,1.089,195.0,493.0
2015-02-13,PhnomPenh,Cambodia,104.9282,11.5564,[104.4282 11.0564 105.4282 12.0564],1.146,0.588,1.561,1.122,1.061,0.548,1.553,1.095,166.0,478.0
2015-02-14,PhnomPenh,Cambodia,104.9282,11.5564,[104.4282 11.0564 105.4282 12.0564],1.124,0.584,1.543,1.107,1.033,0.531,1.554,1.079,189.0,484.0
2015-02-15,PhnomPenh,Cambodia,104.9282,11.5564,[104.4282 11.0564 105.4282 12.0564],1.197,0.727,1.574,1.174,1.096,0.555,1.626,1.128,186.0,495.0
2015-02-16,PhnomPenh,Cambodia,104.9282,11.5564,[104.4282 11.0564 105.4282 12.0564],1.232,0.768,1.569,1.183,1.103,0.574,1.654,1.136,206.0,469.0
2015-02-17,PhnomPenh,Cambodia,104.9282,11.5564,[104.4282 11.0564 105.4282 12.0564],1.158,0.711,1.575,1.173,1.093,0.536,1.632,1.127,195.0,497.0
2015-02-18,PhnomPenh,Cambodia,104.9282,11.5564,[104.4282 11.0564 105.4282 12.0564],1.126,0.588,1.522,1.113,1.102,0.524,1.614,1.12,204.0,464.0
2015-02-19,PhnomPenh,Cambodia,104.9282,11.5564,[104.4282 11.0564 105.4282 12.0564],0.998,0.553,1.455,1.056,1.004,0.506,1.545,1.065,184.0,498.0
2015-02-20,PhnomPenh,Cambodia,104.9282,11.5564,[104.4282 11.0564 105.4282 12.0564],0.992,0.509,1.462,1.068,1.023,0.502,1.564,1.082,170.0,475.0
2015-02-21,PhnomPenh,Cambodia,104.9282,11.5564,[104.4282 11.0564 105.4282 12.0564],0.992,0.506,1.476,1.044,0.979,0.433,1.549,1.035,183.0,494.0
2015-02-22,PhnomPenh,Cambodia,104.9282,11.5564,[104.4282 11.0564 105.4282 12.0564],0.961,0.509,1.423,1.035,0.984,0.463,1.565,1.043,168.0,487.0
2015-02-23,PhnomPenh,Cambodia,104.9282,11.5564,[104.4282 11.0564 105.4282 12.0564],0.955,0.509,1.388,1.017,0.976,0.471,1.552,1.029,182.0,477.0
2015-02-24,PhnomPenh,Cambodia,104.9282,11.5564,[104.4282 11.0564 105.4282 12.0564],0.961,0.506,1.398,0.988,0.973,0.459,1.532,1.017,184.0,498.0
2015-02-25,PhnomPenh,Cambodia,104.9282,11.5564,[104.4282 11.0564 105.4282 12.0564],0.874,0.462,1.357,0.929,0.991,0.474,1.575,1.046,201.0,467.0
2015-02-26,PhnomPenh,Cambodia,104.9282,11.5564,[104.4282 11.0564 105.4282 12.0564],0.874,0.462,1.357,0.929,1.016,0.522,1.544,1.065,201.0,519.0
2015-02-27,PhnomPenh,Cambodia,104.9282,11.5564,[104.4282 11.0564 105.4282 12.0564],0.713,0.4,1.091,0.799,0.98,0.53,1.482,1.041,203.0,496.0
2015-02-28,PhnomPenh,Cambodia,104.9282,11.5564,[104.4282 11.0564 105.4282 12.0564],0.713,0.4,1.125,0.813,0.959,0.51,1.437,1.023,242.0,523.0
2015-03-01,PhnomPenh,Cambodia,104.9282,11.5564,[104.4282 11.0564 105.4282 12.0564],0.713,0.408,1.091,0.805,0.973,0.552,1.438,1.031,239.0,509.0
2015-03-02,PhnomPenh,Cambodia,104.9282,11.5564,[104.4282 11.0564 105.4282 12.0564],0.713,0.423,1.087,0.804,0.937,0.535,1.398,0.997,252.0,516.0
2015-03-03,PhnomPenh,Cambodia,104.9282,11.5564,[104.4282 11.0564 105.4282 12.0564],0.697,0.431,1.053,0.79,0.942,0.558,1.37,0.994,259.0,531.0
2015-03-04,PhnomPenh,Cambodia,104.9282,11.5564,[104.4282 11.0564 105.4282 12.0564],0.713,0.439,1.059,0.799,0.917,0.544,1.305,0.955,277.0,506.0
2015-03-05,PhnomPenh,Cambodia,104.9282,11.5564,[104.4282 11.0564 105.4282 12.0564],0.713,0.445,1.069,0.81,0.932,0.553,1.334,0.97,268.0,533.0
2015-03-06,PhnomPenh,Cambodia,104.9282,11.5564,[104.4282 11.0564 105.4282 12.0564],0.713,0.445,1.074,0.815,0.944,0.564,1.359,0.99,274.0,499.0
2015-03-07,PhnomPenh,Cambodia,104.9282,11.5564,[104.4282 11.0564 105.4282 12.0564],0.711,0.445,1.059,0.78,0.936,0.561,1.329,0.969,257.0,532.0
2015-03-08,PhnomPenh,Cambodia,104.9282,11.5564,[104.4282 11.0564 105.4282 12.0564],0.697,0.431,1.033,0.761,0.949,0.564,1.328,0.983,249.0,509.0
2015-03-09,PhnomPenh,Cambodia,104.9282,11.5564,[104.4282 11.0564 105.4282 12.0564],0.7,0.433,1.053,0.781,0.936,0.558,1.321,0.977,271.0,527.0
2015-03-10,PhnomPenh,Cambodia,104.9282,11.5564,[104.4282 11.0564 105.4282 12.0564],0.711,0.431,1.033,0.77,0.918,0.537,1.253,0.955,258.0,521.0
2015-03-11,PhnomPenh,Cambodia,104.9282,11.5564,[104.4282 11.0564 105.4282 12.0564],0.713,0.434,1.074,0.808,0.923,0.558,1.279,0.97,264.0,510.0
2015-03-12,PhnomPenh,Cambodia,104.9282,11.5564,[104.4282 11.0564 105.4282 12.0564],0.741,0.454,1.125,0.859,0.911,0.563,1.247,0.972,267.0,530.0
2015-03-13,PhnomPenh,Cambodia,104.9282,11.5564,[104.4282 11.0564 105.4282 12.0564],0.741,0.468,1.122,0.858,0.885,0.552,1.245,0.956,287.0,499.0
2015-03-14,PhnomPenh,Cambodia,104.9282,11.5564,[104.4282 11.0564 105.4282 12.0564],0.873,0.561,1.255,0.952,0.912,0.567,1.274,0.971,265.0,523.0
2015-03-15,PhnomPenh,Cambodia,104.9282,11.5564,[104.4282 11.0564 105.4282 12.0564],0.872,0.558,1.255,0.947,0.921,0.578,1.288,0.984,226.0,473.0
2015-03-16,PhnomPenh,Cambodia,104.9282,11.5564,[104.4282 11.0564 105.4282 12.0564],0.891,0.523,1.282,0.961,0.918,0.571,1.3,0.975,238.0,498.0
2015-03-17,PhnomPenh,Cambodia,104.9282,11.5564,[104.4282 11.0564 105.4282 12.0564],0.969,0.583,1.366,0.981,0.929,0.588,1.332,0.99,225.0,482.0
2015-03-18,PhnomPenh,Cambodia,104.9282,11.5564,[104.4282 11.0564 105.4282 12.0564],0.988,0.553,1.427,0.998,0.895,0.54,1.311,0.963,228.0,484.0
2015-03-19,PhnomPenh,Cambodia,104.9282,11.5564,[104.4282 11.0564 105.4282 12.0564],1.019,0.553,1.467,1.053,0.931,0.546,1.369,0.987,234.0,495.0
2015-03-20,PhnomPenh,Cambodia,104.9282,11.5564,[104.4282 11.0564 105.4282 12.0564],1.052,0.567,1.517,1.083,0.908,0.544,1.326,0.975,240.0,473.0
2015-03-21,PhnomPenh,Cambodia,104.9282,11.5564,[104.4282 11.0564 105.4282 12.0564],1.069,0.614,1.52,1.101,0.9,0.55,1.318,0.971,234.0,500.0
2015-03-22,PhnomPenh,Cambodia,104.9282,11.5564,[104.4282 11.0564 105.4282 12.0564],1.052,0.602,1.479,1.067,0.91,0.548,1.331,0.968,241.0,467.0
2015-03-23,PhnomPenh,Cambodia,104.9282,11.5564,[104.4282 11.0564 105.4282 12.0564],1.096,0.691,1.525,1.152,0.901,0.562,1.287,0.981,226.0,499.0
2015-03-24,PhnomPenh,Cambodia,104.9282,11.5564,[104.4282 11.0564 105.4282 12.0564],1.096,0.685,1.52,1.147,0.935,0.566,1.331,0.989,194.0,477.0
2015-03-25,PhnomPenh,Cambodia,104.9282,11.5564,[104.4282 11.0564 105.4282 12.0564],1.096,0.664,1.525,1.15,0.901,0.545,1.328,0.991,213.0,495.0
2015-03-26,PhnomPenh,Cambodia,104.9282,11.5564,[104.4282 11.0564 105.4282 12.0564],1.086,0.642,1.435,1.107,0.899,0.531,1.315,0.969,195.0,490.0
2015-03-27,PhnomPenh,Cambodia,104.9282,11.5564,[104.4282 11.0564 105.4282 12.0564],1.069,0.614,1.371,1.068,0.889,0.527,1.294,0.953,198.0,479.0
2015-03-28,PhnomPenh,Cambodia,104.9282,11.5564,[104.4282 11.0564 105.4282 12.0564],1.086,0.614,1.402,1.096,0.878,0.52,1.264,0.938,197.0,498.0
2015-03-29,PhnomPenh,Cambodia,104.9282,11.5564,[104.4282 11.0564 105.4282 12.0564],1.066,0.602,1.372,1.076,0.871,0.515,1.245,0.932,201.0,470.0
2015-03-30,PhnomPenh,Cambodia,104.9282,11.5564,[104.4282 11.0564 105.4282 12.0564],1.066,0.602,1.372,1.076,0.837,0.514,1.221,0.91,201.0,523.0
2015-03-31,PhnomPenh,Cambodia,104.9282,11.5564,[104.4282 11.0564 105.4282 12.0564],0.857,0.542,1.232,0.967,0.796,0.486,1.16,0.879,194.0,502.0
2015-04-01,PhnomPenh,Cambodia,104.9282,11.5564,[104.4282 11.0564 105.4282 12.0564],0.836,0.542,1.246,0.998,0.799,0.5,1.156,0.875,214.0,528.0
2015-04-02,PhnomPenh,Cambodia,104.9282,11.5564,[104.4282 11.0564 105.4282 12.0564],0.775,0.489,1.114,0.922,0.763,0.474,1.107,0.846,200.0,510.0
2015-04-03,PhnomPenh,Cambodia,104.9282,11.5564,[104.4282 11.0564 105.4282 12.0564],0.775,0.48,1.092,0.857,0.762,0.461,1.089,0.822,205.0,515.0
2015-04-04,PhnomPenh,Cambodia,104.9282,11.5564,[104.4282 11.0564 105.4282 12.0564],0.763,0.455,1.086,0.821,0.741,0.444,1.075,0.792,219.0,523.0
2015-04-05,PhnomPenh,Cambodia,104.9282,11.5564,[104.4282 11.0564 105.4282 12.0564],0.763,0.455,1.086,0.821,0.7,0.417,1.003,0.756,219.0,500.0
2015-04-06,PhnomPenh,Cambodia,104.9282,11.5564,[104.4282 11.0564 105.4282 12.0564],0.775,0.451,1.092,0.831,0.696,0.406,0.985,0.751,212.0,526.0
2015-04-07,PhnomPenh,Cambodia,104.9282,11.5564,[104.4282 11.0564 105.4282 12.0564],0.763,0.433,1.064,0.807,0.686,0.379,0.994,0.721,227.0,493.0
2015-04-08,PhnomPenh,Cambodia,104.9282,11.5564,[104.4282 11.0564 105.4282 12.0564],0.763,0.433,1.064,0.807,0.684,0.371,0.98,0.712,227.0,526.0
2015-04-09,PhnomPenh,Cambodia,104.9282,11.5564,[104.4282 11.0564 105.4282 12.0564],0.692,0.419,0.956,0.763,0.686,0.385,0.974,0.705,217.0,503.0
2015-04-10,PhnomPenh,Cambodia,104.9282,11.5564,[104.4282 11.0564 105.4282 12.0564],0.73,0.428,0.986,0.773,0.683,0.383,0.972,0.698,241.0,521.0
2015-04-11,PhnomPenh,Cambodia,104.9282,11.5564,[104.4282 11.0564 105.4282 12.0564],0.73,0.433,0.985,0.778,0.662,0.369,0.919,0.677,227.0,515.0
2015-04-12,PhnomPenh,Cambodia,104.9282,11.5564,[104.4282 11.0564 105.4282 12.0564],0.763,0.44,1.036,0.813,0.674,0.378,0.946,0.696,236.0,506.0
2015-04-13,PhnomPenh,Cambodia,104.9282,11.5564,[104.4282 11.0564 105.4282 12.0564],0.775,0.451,1.083,0.836,0.673,0.383,0.972,0.705,253.0,524.0
2015-04-14,PhnomPenh,Cambodia,104.9282,11.5564,[104.4282 11.0564 105.4282 12.0564],0.783,0.506,1.092,0.858,0.672,0.394,0.993,0.72,273.0,493.0
2015-04-15,PhnomPenh,Cambodia,104.9282,11.5564,[104.4282 11.0564 105.4282 12.0564],0.836,0.512,1.19,0.913,0.677,0.392,1.017,0.736,248.0,516.0
2015-04-16,PhnomPenh,Cambodia,104.9282,11.5564,[104.4282 11.0564 105.4282 12.0564],0.807,0.506,1.164,0.856,0.672,0.397,1.039,0.734,211.0,467.0
2015-04-17,PhnomPenh,Cambodia,104.9282,11.5564,[104.4282 11.0564 105.4282 12.0564],0.874,0.549,1.255,0.933,0.697,0.422,1.067,0.76,233.0,497.0
2015-04-18,PhnomPenh,Cambodia,104.9282,11.5564,[104.4282 11.0564 105.4282 12.0564],0.857,0.529,1.266,0.93,0.697,0.42,1.065,0.763,214.0,484.0
2015-04-19,PhnomPenh,Cambodia,104.9282,11.5564,[104.4282 11.0564 105.4282 12.0564],0.829,0.529,1.286,0.919,0.692,0.411,1.04,0.747,212.0,490.0
2015-04-20,PhnomPenh,Cambodia,104.9282,11.5564,[104.4282 11.0564 105.4282 12.0564],0.821,0.506,1.266,0.894,0.703,0.413,1.067,0.765,230.0,502.0
2015-04-21,PhnomPenh,Cambodia,104.9282,11.5564,[104.4282 11.0564 105.4282 12.0564],0.761,0.506,1.224,0.863,0.705,0.417,1.067,0.763,242.0,478.0
2015-04-22,PhnomPenh,Cambodia,104.9282,11.5564,[104.4282 11.0564 105.4282 12.0564],0.784,0.529,1.33,0.898,0.715,0.423,1.09,0.777,227.0,507.0
2015-04-23,PhnomPenh,Cambodia,104.9282,11.5564,[104.4282 11.0564 105.4282 12.0564],0.813,0.529,1.339,0.901,0.723,0.424,1.117,0.789,231.0,473.0
2015-04-24,PhnomPenh,Cambodia,104.9282,11.5564,[104.4282 11.0564 105.4282 12.0564],0.926,0.557,1.363,0.969,0.756,0.438,1.127,0.809,212.0,506.0
2015-04-25,PhnomPenh,Cambodia,104.9282,11.5564,[104.4282 11.0564 105.4282 12.0564],0.894,0.553,1.363,0.948,0.771,0.477,1.158,0.833,183.0,482.0
2015-04-26,PhnomPenh,Cambodia,104.9282,11.5564,[104.4282 11.0564 105.4282 12.0564],0.91,0.553,1.363,0.969,0.827,0.518,1.189,0.872,209.0,498.0
2015-04-27,PhnomPenh,Cambodia,104.9282,11.5564,[104.4282 11.0564 105.4282 12.0564],0.953,0.553,1.363,0.986,0.841,0.517,1.197,0.883,191.0,491.0
2015-04-28,PhnomPenh,Cambodia,104.9282,11.5564,[104.4282 11.0564 105.4282 12.0564],1.027,0.557,1.363,1.013,0.864,0.533,1.202,0.893,195.0,482.0
2015-04-29,PhnomPenh,Cambodia,104.9282,11.5564,[104.4282 11.0564 105.4282 12.0564],1.04,0.545,1.447,1.022,0.868,0.519,1.208,0.893,201.0,496.0
2015-04-30,PhnomPenh,Cambodia,104.9282,11.5564,[104.4282 11.0564 105.4282 12.0564],0.953,0.547,1.381,1.0,0.873,0.532,1.214,0.901,212.0,466.0
2015-05-01,PhnomPenh,Cambodia,104.9282,11.5564,[104.4282 11.0564 105.4282 12.0564],0.953,0.547,1.381,1.0,0.877,0.556,1.215,0.906,212.0,517.0
2015-05-02,PhnomPenh,Cambodia,104.9282,11.5564,[104.4282 11.0564 105.4282 12.0564],0.902,0.545,1.291,0.927,0.869,0.545,1.212,0.9,184.0,490.0
2015-05-03,PhnomPenh,Cambodia,104.9282,11.5564,[104.4282 11.0564 105.4282 12.0564],0.944,0.553,1.363,0.996,0.889,0.539,1.21,0.919,212.0,516.0
2015-05-04,PhnomPenh,Cambodia,104.9282,11.5564,[104.4282 11.0564 105.4282 12.0564],0.999,0.57,1.363,1.027,0.922,0.608,1.255,0.965,202.0,507.0
2015-05-05,PhnomPenh,Cambodia,104.9282,11.5564,[104.4282 11.0564 105.4282 12.0564],1.001,0.648,1.421,1.067,0.913,0.623,1.262,0.964,185.0,507.0
2015-05-06,PhnomPenh,Cambodia,104.9282,11.5564,[104.4282 11.0564 105.4282 12.0564],1.032,0.754,1.447,1.125,0.924,0.652,1.286,0.986,184.0,522.0
2015-05-07,PhnomPenh,Cambodia,104.9282,11.5564,[104.4282 11.0564 105.4282 12.0564],1.017,0.732,1.363,1.086,0.92,0.668,1.274,0.98,204.0,498.0
2015-05-08,PhnomPenh,Cambodia,104.9282,11.5564,[104.4282 11.0564 105.4282 12.0564],1.017,0.736,1.377,1.09,0.906,0.659,1.256,0.971,200.0,523.0
2015-05-09,PhnomPenh,Cambodia,104.9282,11.5564,[104.4282 11.0564 105.4282 12.0564],0.963,0.656,1.303,1.028,0.907,0.65,1.265,0.973,211.0,489.0
2015-05-10,PhnomPenh,Cambodia,104.9282,11.5564,[104.4282 11.0564 105.4282 12.0564],0.972,0.687,1.309,1.045,0.942,0.663,1.292,0.994,206.0,523.0
2015-05-11,PhnomPenh,Cambodia,104.9282,11.5564,[104.4282 11.0564 105.4282 12.0564],0.963,0.677,1.26,1.026,0.938,0.625,1.269,0.979,180.0,502.0
2015-05-12,PhnomPenh,Cambodia,104.9282,11.5564,[104.4282 11.0564 105.4282 12.0564],0.96,0.656,1.22,1.012,0.927,0.614,1.26,0.966,199.0,521.0
2015-05-13,PhnomPenh,Cambodia,104.9282,11.5564,[104.4282 11.0564 105.4282 12.0564],0.937,0.58,1.129,0.977,0.901,0.597,1.186,0.937,175.0,514.0
2015-05-14,PhnomPenh,Cambodia,104.9282,11.5564,[104.4282 11.0564 105.4282 12.0564],0.96,0.648,1.22,1.004,0.907,0.622,1.201,0.945,170.0,512.0
2015-05-15,PhnomPenh,Cambodia,104.9282,11.5564,[104.4282 11.0564 105.4282 12.0564],0.974,0.648,1.253,1.014,0.908,0.612,1.179,0.939,179.0,529.0
2015-05-16,PhnomPenh,Cambodia,104.9282,11.5564,[104.4282 11.0564 105.4282 12.0564],0.963,0.612,1.215,0.976,0.903,0.583,1.189,0.929,195.0,500.0
2015-05-17,PhnomPenh,Cambodia,104.9282,11.5564,[104.4282 11.0564 105.4282 12.0564],0.995,0.622,1.26,1.007,0.899,0.582,1.215,0.934,185.0,528.0
2015-05-18,PhnomPenh,Cambodia,104.9282,11.5564,[104.4282 11.0564 105.4282 12.0564],0.974,0.613,1.183,0.961,0.904,0.586,1.198,0.927,147.0,477.0
2015-05-19,PhnomPenh,Cambodia,104.9282,11.5564,[104.4282 11.0564 105.4282 12.0564],0.947,0.577,1.22,0.964,0.9,0.583,1.206,0.929,175.0,497.0
2015-05-20,PhnomPenh,Cambodia,104.9282,11.5564,[104.4282 11.0564 105.4282 12.0564],0.96,0.573,1.228,0.96,0.927,0.575,1.22,0.943,187.0,488.0
2015-05-21,PhnomPenh,Cambodia,104.9282,11.5564,[104.4282 11.0564 105.4282 12.0564],0.926,0.561,1.252,0.953,0.909,0.566,1.213,0.929,205.0,489.0
2015-05-22,PhnomPenh,Cambodia,104.9282,11.5564,[104.4282 11.0564 105.4282 12.0564],0.974,0.554,1.335,0.972,0.906,0.538,1.234,0.933,201.0,502.0
2015-05-23,PhnomPenh,Cambodia,104.9282,11.5564,[104.4282 11.0564 105.4282 12.0564],0.96,0.54,1.297,0.946,0.903,0.544,1.241,0.932,206.0,480.0
2015-05-24,PhnomPenh,Cambodia,104.9282,11.5564,[104.4282 11.0564 105.4282 12.0564],1.016,0.598,1.399,1.001,0.89,0.537,1.243,0.914,195.0,509.0
2015-05-25,PhnomPenh,Cambodia,104.9282,11.5564,[104.4282 11.0564 105.4282 12.0564],0.913,0.598,1.297,0.943,0.826,0.504,1.176,0.856,206.0,475.0
2015-05-26,PhnomPenh,Cambodia,104.9282,11.5564,[104.4282 11.0564 105.4282 12.0564],0.856,0.56,1.297,0.926,0.807,0.483,1.159,0.847,197.0,507.0
2015-05-27,PhnomPenh,Cambodia,104.9282,11.5564,[104.4282 11.0564 105.4282 12.0564],0.834,0.546,1.228,0.879,0.818,0.473,1.135,0.839,173.0,484.0
2015-05-28,PhnomPenh,Cambodia,104.9282,11.5564,[104.4282 11.0564 105.4282 12.0564],0.834,0.543,1.248,0.886,0.816,0.485,1.155,0.829,204.0,503.0
2015-05-29,PhnomPenh,Cambodia,104.9282,11.5564,[104.4282 11.0564 105.4282 12.0564],0.807,0.519,1.179,0.847,0.782,0.459,1.14,0.8,189.0,494.0
2015-05-30,PhnomPenh,Cambodia,104.9282,11.5564,[104.4282 11.0564 105.4282 12.0564],0.81,0.518,1.21,0.873,0.772,0.455,1.129,0.799,183.0,485.0
2015-05-31,PhnomPenh,Cambodia,104.9282,11.5564,[104.4282 11.0564 105.4282 12.0564],0.834,0.518,1.269,0.899,0.747,0.414,1.112,0.774,182.0,503.0
2015-06-01,PhnomPenh,Cambodia,104.9282,11.5564,[104.4282 11.0564 105.4282 12.0564],0.825,0.516,1.297,0.887,0.748,0.41,1.122,0.763,201.0,474.0
2015-06-02,PhnomPenh,Cambodia,104.9282,11.5564,[104.4282 11.0564 105.4282 12.0564],0.825,0.516,1.297,0.887,0.744,0.393,1.118,0.753,201.0,525.0
2015-06-03,PhnomPenh,Cambodia,104.9282,11.5564,[104.4282 11.0564 105.4282 12.0564],0.678,0.394,1.036,0.762,0.682,0.362,1.021,0.716,186.0,500.0
2015-06-04,PhnomPenh,Cambodia,104.9282,11.5564,[104.4282 11.0564 105.4282 12.0564],0.678,0.394,1.036,0.772,0.646,0.323,0.996,0.683,208.0,523.0
2015-06-05,PhnomPenh,Cambodia,104.9282,11.5564,[104.4282 11.0564 105.4282 12.0564],0.678,0.394,0.991,0.758,0.625,0.34,0.921,0.661,179.0,512.0
2015-06-06,PhnomPenh,Cambodia,104.9282,11.5564,[104.4282 11.0564 105.4282 12.0564],0.678,0.394,1.04,0.765,0.625,0.341,0.933,0.661,193.0,512.0
2015-06-07,PhnomPenh,Cambodia,104.9282,11.5564,[104.4282 11.0564 105.4282 12.0564],0.723,0.423,1.129,0.808,0.612,0.337,0.962,0.656,209.0,526.0
2015-06-08,PhnomPenh,Cambodia,104.9282,11.5564,[104.4282 11.0564 105.4282 12.0564],0.729,0.441,1.173,0.827,0.594,0.319,0.902,0.633,223.0,499.0
2015-06-09,PhnomPenh,Cambodia,104.9282,11.5564,[104.4282 11.0564 105.4282 12.0564],0.806,0.423,1.221,0.851,0.61,0.3,0.93,0.637,212.0,526.0
2015-06-10,PhnomPenh,Cambodia,104.9282,11.5564,[104.4282 11.0564 105.4282 12.0564],0.806,0.423,1.221,0.851,0.615,0.296,0.94,0.639,212.0,493.0
2015-06-11,PhnomPenh,Cambodia,104.9282,11.5564,[104.4282 11.0564 105.4282 12.0564],0.806,0.394,1.214,0.85,0.588,0.277,0.923,0.622,207.0,526.0
2015-06-12,PhnomPenh,Cambodia,104.9282,11.5564,[104.4282 11.0564 105.4282 12.0564],0.806,0.394,1.203,0.84,0.572,0.297,0.934,0.633,175.0,502.0
2015-06-13,PhnomPenh,Cambodia,104.9282,11.5564,[104.4282 11.0564 105.4282 12.0564],0.729,0.394,1.184,0.812,0.557,0.312,0.913,0.627,172.0,521.0
2015-06-14,PhnomPenh,Cambodia,104.9282,11.5564,[104.4282 11.0564 105.4282 12.0564],0.727,0.392,1.153,0.784,0.548,0.297,0.894,0.609,158.0,514.0